Flag for U.S.A. Weather past 2 weeks in Mobile, Alabama, U.S.A.

Now
46 °F

Clear.


Feels Like: 42 °F
Forecast: 38 / 60 °F
Wind: 7 mph from North

Location: Mobile Downtown Airport

Current Time: Jan 30, 2015 at 10:31:25 PM

Latest Report: Jan 30, 2015 at 9:53 PM


Visibility: 10 mi

Pressure: 30.37 "Hg

Humidity: 61%

Dew point: 33 °F

Location of MobileLocation

Historic Weather in Mobile — Graph

°F

Mobile temperature yesterday

Maximum temperature yesterday: 66 °F (at 1:53 PM)
Minimum temperature yesterday: 40 °F (at 4:53 AM)
Average temperature yesterday: 55 °F

Past Weeks' High & Low Weather Summary

 TemperatureHumidityPressure
High71 °F (Jan 27, 2:53 PM)100% (Jan 21, 12:53 AM)30.40 "Hg (Jan 21, 12:53 AM)
Low34 °F (Jan 19, 5:53 AM)21% (Jan 18, 2:53 PM)29.83 "Hg (Jan 23, 1:53 PM)
Average51 °F70%30.13 "Hg
* Reported Jan 15 8:53 PM — Jan 30 8:53 PM, Mobile, Weather by CustomWeather, © 2014

Note: Actual official high and low records may vary slightly from our data, if they occured in-between our weather recording intervals... More about our weather records

Advertising

Mobile weather history for previous 24 hours

 ConditionsComfort  
Time TempWeatherWind HumidityBarometerVisibility
8:53 PM
Jan 30
48 °FClear.8 mph59%30.37 "Hg10 mi
7:53 PM48 °FClear.5 mph59%30.35 "Hg10 mi
6:53 PM52 °FClear.8 mph49%30.34 "Hg10 mi
5:53 PM54 °FClear.9 mph45%30.33 "Hg10 mi
4:53 PM60 °FSunny.8 mph31%30.31 "Hg10 mi
3:53 PM62 °FSunny.10 mph29%30.30 "Hg10 mi
2:53 PM61 °FSunny.12 mph32%30.31 "Hg10 mi
1:53 PM61 °FSunny.10 mph32%30.30 "Hg10 mi
12:53 PM59 °FSunny.10 mph36%30.32 "Hg10 mi
11:53 AM56 °FSunny.13 mph42%30.35 "Hg10 mi
10:53 AM53 °FSunny.17 mph47%30.39 "Hg10 mi
9:53 AM51 °FSunny.14 mph50%30.40 "Hg10 mi
8:53 AM49 °FSunny.17 mph57%30.39 "Hg10 mi
7:53 AM47 °FSunny.15 mph64%30.38 "Hg10 mi
6:53 AM45 °FSunny.14 mph74%30.34 "Hg10 mi
5:53 AM47 °FClear.14 mph71%30.32 "Hg10 mi
4:53 AM50 °FClear.17 mph63%30.29 "Hg10 mi
3:53 AM54 °FClear.17 mph69%30.27 "Hg10 mi
2:53 AM58 °FClear.14 mph75%30.25 "Hg10 mi
1:53 AM59 °FClear.15 mph84%30.23 "Hg10 mi
12:53 AM60 °FPassing clouds.6 mph86%30.22 "Hg10 mi
11:53 PM
Jan 29
61 °FClear.8 mph87%30.21 "Hg10 mi
10:53 PM62 °FClear.8 mph83%30.21 "Hg10 mi
Weather by CustomWeather, © 2014

See weather overviewHow to use our weather pages